When you browse on this site, cookies collect data to enhance your experience and personalize the content and advertising you see.
Visit our Privacy Policy to learn more. By continuing to use the site, you agree to this use of cookies and data.
  • Em Portugal
  • Lista de países
  • Para 7 dias
  • Temperatura da água
  • Mapa do tempo
  • Widgets de tempo
  • user-avatar
    Iniciar Sessão

    Previsão horária em Dromore

    Hoje, 17 Setembro, Terça-feira

    Tempo Temperatura Precipitação Vento Pressão Humidade
    00:00 +7°C° 0 mm 3 m/s 759 mmHg 91%
    01:00 +7°C° 0 mm 3 m/s 759 mmHg 91%
    02:00 +7°C° 0 mm 2 m/s 759 mmHg 91%
    03:00 +7°C° 0 mm 2 m/s 759 mmHg 90%
    04:00 +7°C° 0 mm 2 m/s 759 mmHg 91%
    05:00 +7°C° 0 mm 2 m/s 759 mmHg 91%
    06:00 +7°C° 0 mm 2 m/s 759 mmHg 91%
    07:00 +8°C° 0 mm 2 m/s 760 mmHg 86%
    08:00 +10°C° 0 mm 2 m/s 760 mmHg 82%
    09:00 +11°C° 0 mm 3 m/s 760 mmHg 78%
    10:00 +12°C° 0 mm 3 m/s 760 mmHg 75%
    11:00 +13°C° 0 mm 3 m/s 760 mmHg 73%
    12:00 +14°C° 0 mm 3 m/s 761 mmHg 70%
    13:00 +15°C° 0 mm 2 m/s 761 mmHg 70%
    14:00 +15°C° 0 mm 2 m/s 761 mmHg 71%
    15:00 +15°C° 0 mm 2 m/s 761 mmHg 71%
    16:00 +14°C° 0 mm 2 m/s 761 mmHg 75%
    17:00 +13°C° 0 mm 2 m/s 761 mmHg 80%
    18:00 +12°C° 0 mm 2 m/s 761 mmHg 85%
    19:00 +11°C° 0 mm 1 m/s 761 mmHg 87%
    20:00 +10°C° 0 mm 1 m/s 761 mmHg 89%
    21:00 +9°C° 0 mm 1 m/s 761 mmHg 91%
    22:00 +9°C° 0 mm 1 m/s 761 mmHg 91%
    23:00 +9°C° 0 mm 1 m/s 761 mmHg 92%

    Amanhã, 18 Setembro, Quarta-feira

    Tempo Temperatura Precipitação Vento Pressão Humidade
    00:00 +9°C° 0 mm 1 m/s 761 mmHg 92%
    01:00 +9°C° 0 mm 1 m/s 761 mmHg 92%
    02:00 +9°C° 0 mm 1 m/s 761 mmHg 93%
    03:00 +9°C° 0 mm 1 m/s 761 mmHg 93%
    04:00 +9°C° 0 mm 1 m/s 761 mmHg 93%
    05:00 +8°C° 0 mm 1 m/s 761 mmHg 93%
    06:00 +8°C° 0 mm 1 m/s 761 mmHg 93%
    07:00 +10°C° 0 mm 1 m/s 762 mmHg 89%
    08:00 +12°C° 0 mm 1 m/s 762 mmHg 85%
    09:00 +13°C° 0 mm 1 m/s 762 mmHg 81%
    10:00 +14°C° 0 mm 1 m/s 762 mmHg 77%
    11:00 +15°C° 0 mm 1 m/s 762 mmHg 73%
    12:00 +18°C° 0 mm 1 m/s 762 mmHg 68%
    13:00 +18°C° 0 mm 1 m/s 762 mmHg 68%
    14:00 +18°C° 0 mm 1 m/s 763 mmHg 67%
    15:00 +19°C° 0 mm 1 m/s 763 mmHg 67%
    16:00 +18°C° 0 mm 1 m/s 762 mmHg 72%
    17:00 +15°C° 0 mm 1 m/s 762 mmHg 77%
    18:00 +13°C° 0 mm 0 m/s 762 mmHg 82%
    19:00 +12°C° 0 mm 0 m/s 762 mmHg 85%
    20:00 +11°C° 0 mm 0 m/s 763 mmHg 87%
    21:00 +10°C° 0 mm 0 m/s 763 mmHg 89%
    22:00 +10°C° 0 mm 0 m/s 763 mmHg 89%
    23:00 +10°C° 0 mm 0 m/s 763 mmHg 90%

    Depois de amanhã, 19 Setembro, Quinta-feira

    Tempo Temperatura Precipitação Vento Pressão Humidade
    00:00 +10°C° 0 mm 0 m/s 763 mmHg 90%
    01:00 +10°C° 0 mm 0 m/s 763 mmHg 90%
    02:00 +10°C° 0 mm 0 m/s 762 mmHg 90%
    03:00 +10°C° 0 mm 0 m/s 762 mmHg 90%
    04:00 +9°C° 0 mm 0 m/s 762 mmHg 90%
    05:00 +10°C° 0 mm 1 m/s 762 mmHg 90%
    06:00 +10°C° 0 mm 1 m/s 762 mmHg 91%
    07:00 +12°C° 0 mm 1 m/s 762 mmHg 87%
    08:00 +13°C° 0 mm 1 m/s 763 mmHg 83%
    09:00 +15°C° 0 mm 1 m/s 763 mmHg 80%
    10:00 +16°C° 0 mm 1 m/s 763 mmHg 77%
    11:00 +17°C° 0 mm 2 m/s 763 mmHg 73%
    12:00 +18°C° 0 mm 2 m/s 763 mmHg 70%
    13:00 +18°C° 0 mm 2 m/s 762 mmHg 71%
    14:00 +18°C° 0 mm 2 m/s 762 mmHg 72%
    15:00 +18°C° 0 mm 2 m/s 762 mmHg 72%
    16:00 +17°C° 0 mm 2 m/s 762 mmHg 77%
    17:00 +16°C° 0 mm 2 m/s 761 mmHg 82%
    18:00 +15°C° 0 mm 2 m/s 761 mmHg 86%
    19:00 +14°C° 0 mm 2 m/s 761 mmHg 87%
    20:00 +13°C° 0 mm 2 m/s 761 mmHg 88%
    21:00 +12°C° 0 mm 2 m/s 761 mmHg 88%
    22:00 +12°C° 0 mm 2 m/s 761 mmHg 89%
    23:00 +10°C° 0 mm 2 m/s 761 mmHg 89%

    20 Setembro, Sexta-feira

    Tempo Temperatura Precipitação Vento Pressão Humidade
    00:00 +10°C° 0 mm 2 m/s 760 mmHg 90%
    01:00 +10°C° 0 mm 2 m/s 760 mmHg 91%
    02:00 +10°C° 0 mm 2 m/s 760 mmHg 92%
    03:00 +10°C° 0 mm 2 m/s 759 mmHg 93%
    04:00 +10°C° 0 mm 2 m/s 759 mmHg 93%
    05:00 +10°C° 0 mm 2 m/s 758 mmHg 94%
    06:00 +10°C° 0 mm 2 m/s 758 mmHg 94%
    07:00 +12°C° 0 mm 2 m/s 758 mmHg 91%
    08:00 +13°C° 0 mm 3 m/s 757 mmHg 87%
    09:00 +14°C° 0 mm 3 m/s 757 mmHg 84%
    10:00 +15°C° 0 mm 4 m/s 757 mmHg 81%
    11:00 +16°C° 0 mm 5 m/s 756 mmHg 78%
    12:00 +17°C° 0 mm 6 m/s 756 mmHg 75%
    13:00 +17°C° 0 mm 6 m/s 755 mmHg 74%
    14:00 +17°C° 0 mm 6 m/s 754 mmHg 74%
    15:00 +16°C° 0 mm 6 m/s 754 mmHg 73%
    16:00 +15°C° 0 mm 5 m/s 753 mmHg 76%
    17:00 +14°C° 0 mm 5 m/s 753 mmHg 80%
    18:00 +13°C° 0 mm 4 m/s 752 mmHg 83%
    19:00 +13°C° 0 mm 4 m/s 752 mmHg 85%
    20:00 +13°C° 0 mm 4 m/s 751 mmHg 87%
    21:00 +12°C° 0 mm 4 m/s 751 mmHg 89%
    22:00 +12°C° 0 mm 5 m/s 750 mmHg 86%
    23:00 +13°C° 0 mm 5 m/s 750 mmHg 83%

    21 Setembro, Sábado

    Tempo Temperatura Precipitação Vento Pressão Humidade
    00:00 +13°C° 0 mm 6 m/s 749 mmHg 80%
    01:00 +13°C° 0 mm 5 m/s 749 mmHg 80%
    02:00 +12°C° 0 mm 5 m/s 748 mmHg 81%
    03:00 +12°C° 0 mm 5 m/s 748 mmHg 81%
    04:00 +12°C° 0 mm 5 m/s 747 mmHg 81%
    05:00 +12°C° 0 mm 5 m/s 746 mmHg 81%
    06:00 +11°C° 0 mm 6 m/s 746 mmHg 81%
    07:00 +13°C° 0 mm 6 m/s 745 mmHg 78%
    08:00 +13°C° 0 mm 6 m/s 745 mmHg 76%
    09:00 +14°C° 0 mm 7 m/s 744 mmHg 73%
    10:00 +15°C° 0 mm 7 m/s 744 mmHg 71%
    11:00 +16°C° 0 mm 7 m/s 743 mmHg 70%
    12:00 +16°C° 0 mm 7 m/s 743 mmHg 68%
    13:00 +16°C° 0 mm 7 m/s 742 mmHg 70%
    14:00 +16°C° 0 mm 7 m/s 741 mmHg 72%
    15:00 +16°C° 0 mm 7 m/s 741 mmHg 74%
    16:00 +16°C° 0.9 mm 7 m/s 740 mmHg 81%
    17:00 +15°C° 0.9 mm 6 m/s 740 mmHg 88%
    18:00 +14°C° 0.9 mm 5 m/s 739 mmHg 96%
    19:00 +14°C° 0.1 mm 5 m/s 739 mmHg 96%
    20:00 +14°C° 0.1 mm 6 m/s 739 mmHg 96%
    21:00 +14°C° 0.1 mm 6 m/s 739 mmHg 95%
    22:00 +14°C° 0.1 mm 6 m/s 739 mmHg 95%
    23:00 +13°C° 0.1 mm 5 m/s 739 mmHg 94%

    22 Setembro, Domingo

    Tempo Temperatura Precipitação Vento Pressão Humidade
    00:00 +13°C° 0.1 mm 4 m/s 740 mmHg 94%
    01:00 +12°C° 0 mm 4 m/s 740 mmHg 94%
    02:00 +11°C° 0 mm 4 m/s 740 mmHg 94%
    03:00 +10°C° 0 mm 3 m/s 740 mmHg 95%
    04:00 +11°C° 0 mm 4 m/s 740 mmHg 94%
    05:00 +11°C° 0 mm 4 m/s 740 mmHg 94%
    06:00 +10°C° 0 mm 5 m/s 740 mmHg 94%
    07:00 +12°C° 0 mm 5 m/s 740 mmHg 91%
    08:00 +13°C° 0 mm 6 m/s 740 mmHg 88%
    09:00 +12°C° 0 mm 7 m/s 740 mmHg 85%
    10:00 +12°C° 0.1 mm 7 m/s 741 mmHg 82%
    11:00 +13°C° 0.1 mm 8 m/s 741 mmHg 79%
    12:00 +13°C° 0.1 mm 8 m/s 742 mmHg 77%
    13:00 +13°C° 0.3 mm 8 m/s 742 mmHg 77%
    14:00 +14°C° 0.3 mm 7 m/s 743 mmHg 78%
    15:00 +14°C° 0.3 mm 7 m/s 744 mmHg 79%
    16:00 +13°C° 0 mm 6 m/s 744 mmHg 79%
    17:00 +12°C° 0 mm 5 m/s 745 mmHg 80%
    18:00 +11°C° 0 mm 4 m/s 746 mmHg 80%
    19:00 +11°C° 0 mm 4 m/s 746 mmHg 82%
    20:00 +10°C° 0 mm 4 m/s 747 mmHg 84%
    21:00 +8°C° 0 mm 4 m/s 747 mmHg 86%
    22:00 +8°C° 0 mm 4 m/s 747 mmHg 87%
    23:00 +9°C° 0 mm 3 m/s 747 mmHg 89%
    Mostrar mais